PHKAY FPPR-FGSL

Flight info

Callsign PHKAY
Flight time 1h 1m
Altitude 2500
Route VFR
Aircraft BE36/L-VGDW/C

Departure

Time 2026-05-04 18:14
Airport Principe Airport (FPPR)

Arrival

Time 2026-05-04 19:16
Airport Malabo International Airport (FGSL)
Time Latitude Longitude Altitude Speed Heading
2026-05-04 18:07 1.66522 7.41211 593 ft 0 kts 246°
2026-05-04 18:11 1.66519 7.41205 593 ft 6 kts 239°
2026-05-04 18:11 1.66489 7.41170 593 ft 6 kts 255°
2026-05-04 18:12 1.66487 7.41165 593 ft 0 kts 252°
2026-05-04 18:12 1.66478 7.41130 593 ft 18 kts 252°
2026-05-04 18:13 1.66453 7.41107 593 ft 0 kts 179°
2026-05-04 18:13 1.65890 7.41110 594 ft 95 kts 180°
2026-05-04 18:14 1.65223 7.41155 895 ft 93 kts 162°
2026-05-04 18:14 1.64840 7.41673 1220 ft 103 kts 103°
2026-05-04 18:14 1.64975 7.42434 1405 ft 121 kts 62°
2026-05-04 18:15 1.66395 7.43426 2071 ft 122 kts 25°
2026-05-04 18:15 1.67793 7.44229 3046 ft 113 kts 29°
2026-05-04 18:15 1.68447 7.44644 3498 ft 112 kts 29°
2026-05-04 18:16 1.69092 7.45062 3943 ft 112 kts 29°
2026-05-04 18:16 1.69735 7.45485 4388 ft 111 kts 29°
2026-05-04 18:16 1.70374 7.45913 4831 ft 111 kts 29°
2026-05-04 18:17 1.71810 7.46876 5235 ft 147 kts 30°
2026-05-04 18:17 1.72718 7.47470 5241 ft 165 kts 29°
2026-05-04 18:17 1.74812 7.48751 5236 ft 183 kts 28°
2026-05-04 18:18 1.75942 7.49411 5235 ft 186 kts 25°
2026-05-04 18:18 1.77099 7.50029 5235 ft 188 kts 25°
2026-05-04 18:18 1.78259 7.50645 5234 ft 189 kts 25°
2026-05-04 18:18 1.79436 7.51271 5234 ft 190 kts 25°
2026-05-04 18:19 1.81793 7.52523 5233 ft 191 kts 25°
2026-05-04 18:19 1.82955 7.53140 5234 ft 191 kts 25°
2026-05-04 18:19 1.84150 7.53775 5234 ft 191 kts 25°
2026-05-04 18:20 1.84624 7.54034 5234 ft 191 kts 26°
2026-05-04 18:20 1.85722 7.54642 5234 ft 191 kts 26°
2026-05-04 18:20 1.86864 7.55296 5235 ft 191 kts 27°
2026-05-04 18:20 1.88035 7.55972 5236 ft 191 kts 27°
2026-05-04 18:21 1.89175 7.56650 5237 ft 191 kts 28°
2026-05-04 18:21 1.90328 7.57344 5237 ft 191 kts 28°
2026-05-04 18:21 1.91456 7.58028 5238 ft 190 kts 28°
2026-05-04 18:21 1.92572 7.58740 5239 ft 190 kts 30°
2026-05-04 18:22 1.93692 7.59470 5239 ft 190 kts 30°
2026-05-04 18:22 1.94808 7.60198 5239 ft 190 kts 30°
2026-05-04 18:22 1.95913 7.60920 5240 ft 190 kts 30°
2026-05-04 18:22 1.97033 7.61652 5240 ft 190 kts 30°
2026-05-04 18:23 1.98133 7.62370 5240 ft 190 kts 30°
2026-05-04 18:23 1.99239 7.63093 5240 ft 190 kts 30°
2026-05-04 18:23 2.00366 7.63829 5240 ft 190 kts 30°
2026-05-04 18:23 2.01470 7.64550 5240 ft 190 kts 30°
2026-05-04 18:24 2.02615 7.65299 5238 ft 190 kts 30°
2026-05-04 18:24 2.03730 7.66028 5237 ft 190 kts 30°
2026-05-04 18:24 2.04845 7.66757 5237 ft 190 kts 30°
2026-05-04 18:24 2.05941 7.67475 5237 ft 190 kts 30°
2026-05-04 18:25 2.07061 7.68207 5237 ft 190 kts 30°
2026-05-04 18:25 2.08171 7.68934 5237 ft 190 kts 30°
2026-05-04 18:25 2.09272 7.69655 5237 ft 190 kts 30°
2026-05-04 18:25 2.10569 7.70504 5237 ft 190 kts 30°
2026-05-04 18:26 2.11678 7.71230 5238 ft 190 kts 30°
2026-05-04 18:26 2.12779 7.71951 5238 ft 190 kts 30°
2026-05-04 18:26 2.13902 7.72687 5238 ft 190 kts 30°
2026-05-04 18:26 2.15002 7.73407 5238 ft 190 kts 30°
2026-05-04 18:27 2.16108 7.74132 5238 ft 190 kts 30°
2026-05-04 18:27 2.17213 7.74856 5238 ft 190 kts 30°
2026-05-04 18:27 2.18320 7.75581 5238 ft 190 kts 30°
2026-05-04 18:27 2.19434 7.76312 5238 ft 190 kts 30°
2026-05-04 18:28 2.20539 7.77034 5238 ft 190 kts 29°
2026-05-04 18:28 2.21652 7.77738 5238 ft 190 kts 29°
2026-05-04 18:28 2.22803 7.78463 5238 ft 190 kts 28°
2026-05-04 18:28 2.23934 7.79142 5238 ft 189 kts 27°
2026-05-04 18:29 2.25084 7.79815 5238 ft 189 kts 27°
2026-05-04 18:29 2.26228 7.80484 5238 ft 189 kts 27°
2026-05-04 18:29 2.27373 7.81153 5238 ft 189 kts 27°
2026-05-04 18:29 2.28514 7.81821 5238 ft 189 kts 27°
2026-05-04 18:30 2.30806 7.83162 5238 ft 189 kts 27°
2026-05-04 18:30 2.31949 7.83831 5238 ft 189 kts 27°
2026-05-04 18:30 2.33092 7.84500 5238 ft 189 kts 27°
2026-05-04 18:31 2.34240 7.85172 5238 ft 189 kts 27°
2026-05-04 18:31 2.35365 7.85831 5238 ft 189 kts 27°
2026-05-04 18:31 2.36508 7.86500 5238 ft 189 kts 27°
2026-05-04 18:31 2.37642 7.87165 5238 ft 189 kts 27°
2026-05-04 18:32 2.38780 7.87831 5238 ft 189 kts 27°
2026-05-04 18:32 2.39922 7.88500 5238 ft 189 kts 27°
2026-05-04 18:32 2.41072 7.89174 5238 ft 189 kts 27°
2026-05-04 18:32 2.42209 7.89841 5238 ft 189 kts 27°
2026-05-04 18:33 2.43341 7.90505 5238 ft 189 kts 27°
2026-05-04 18:33 2.44483 7.91174 5238 ft 189 kts 27°
2026-05-04 18:33 2.45619 7.91841 5238 ft 189 kts 27°
2026-05-04 18:33 2.46743 7.92521 5238 ft 190 kts 28°
2026-05-04 18:34 2.47882 7.93216 5238 ft 190 kts 28°
2026-05-04 18:34 2.48998 7.93897 5238 ft 190 kts 28°
2026-05-04 18:34 2.50131 7.94588 5238 ft 190 kts 28°
2026-05-04 18:34 2.51270 7.95283 5238 ft 190 kts 28°
2026-05-04 18:35 2.52391 7.95967 5238 ft 190 kts 28°
2026-05-04 18:35 2.53524 7.96659 5238 ft 190 kts 28°
2026-05-04 18:35 2.54652 7.97348 5238 ft 190 kts 28°
2026-05-04 18:35 2.55787 7.98047 5238 ft 190 kts 29°
2026-05-04 18:36 2.56904 7.98756 5238 ft 190 kts 29°
2026-05-04 18:36 2.58022 7.99465 5238 ft 190 kts 29°
2026-05-04 18:36 2.59132 8.00170 5238 ft 190 kts 29°
2026-05-04 18:36 2.60261 8.00887 5238 ft 190 kts 29°
2026-05-04 18:37 2.61365 8.01590 5308 ft 187 kts 29°
2026-05-04 18:37 2.62454 8.02284 5359 ft 186 kts 29°
2026-05-04 18:37 2.63549 8.02982 5408 ft 185 kts 29°
2026-05-04 18:37 2.64642 8.03681 5481 ft 184 kts 29°
2026-05-04 18:38 2.65725 8.04375 5556 ft 183 kts 29°
2026-05-04 18:38 2.66804 8.05067 5631 ft 182 kts 29°
2026-05-04 18:38 2.67879 8.05757 5706 ft 182 kts 29°
2026-05-04 18:38 2.68940 8.06440 5781 ft 182 kts 29°
2026-05-04 18:39 2.70023 8.07137 5857 ft 182 kts 29°
2026-05-04 18:39 2.71086 8.07822 5932 ft 182 kts 29°
2026-05-04 18:39 2.72159 8.08513 6010 ft 181 kts 29°
2026-05-04 18:39 2.73222 8.09199 6111 ft 180 kts 28°
2026-05-04 18:40 2.74289 8.09852 6211 ft 179 kts 26°
2026-05-04 18:40 2.75376 8.10483 6312 ft 179 kts 26°
2026-05-04 18:40 2.76446 8.11102 6411 ft 178 kts 26°
2026-05-04 18:40 2.77524 8.11727 6511 ft 178 kts 26°
2026-05-04 18:41 2.78607 8.12356 6612 ft 178 kts 26°
2026-05-04 18:41 2.79703 8.12993 6714 ft 178 kts 26°
2026-05-04 18:41 2.80797 8.13630 6816 ft 178 kts 26°
2026-05-04 18:41 2.81875 8.14258 6917 ft 178 kts 26°
2026-05-04 18:42 2.82949 8.14884 7017 ft 178 kts 26°
2026-05-04 18:42 2.84024 8.15512 7117 ft 178 kts 26°
2026-05-04 18:42 2.85102 8.16142 7218 ft 178 kts 26°
2026-05-04 18:42 2.86169 8.16766 7317 ft 178 kts 26°
2026-05-04 18:43 2.87237 8.17397 7417 ft 178 kts 27°
2026-05-04 18:43 2.88307 8.18048 7518 ft 178 kts 27°
2026-05-04 18:43 2.89380 8.18724 7620 ft 178 kts 28°
2026-05-04 18:43 2.90454 8.19409 7722 ft 178 kts 28°
2026-05-04 18:44 2.91506 8.20082 7822 ft 178 kts 28°
2026-05-04 18:44 2.92202 8.20529 7889 ft 177 kts 28°
2026-05-04 18:44 2.93584 8.21418 8021 ft 177 kts 28°
2026-05-04 18:44 2.94621 8.22087 8121 ft 176 kts 28°
2026-05-04 18:45 2.95650 8.22752 8219 ft 175 kts 28°
2026-05-04 18:45 2.96677 8.23416 8318 ft 175 kts 28°
2026-05-04 18:45 2.97715 8.24087 8418 ft 174 kts 28°
2026-05-04 18:45 2.98730 8.24743 8516 ft 173 kts 28°
2026-05-04 18:46 2.99743 8.25396 8614 ft 172 kts 28°
2026-05-04 18:46 3.00752 8.26044 8711 ft 171 kts 28°
2026-05-04 18:46 3.01749 8.26682 8808 ft 170 kts 28°
2026-05-04 18:46 3.02746 8.27317 8905 ft 169 kts 28°
2026-05-04 18:47 3.03747 8.27948 9001 ft 168 kts 28°
2026-05-04 18:47 3.04755 8.28581 9099 ft 168 kts 28°
2026-05-04 18:47 3.05737 8.29195 9193 ft 167 kts 28°
2026-05-04 18:47 3.06743 8.29824 9230 ft 170 kts 30°
2026-05-04 18:48 3.07631 8.30462 9236 ft 173 kts 33°
2026-05-04 18:48 3.08218 8.30907 9235 ft 175 kts 34°
2026-05-04 18:48 3.09145 8.31732 9236 ft 177 kts 38°
2026-05-04 18:48 3.10046 8.32556 9236 ft 178 kts 38°
2026-05-04 18:49 3.11037 8.33466 9240 ft 179 kts 38°
2026-05-04 18:49 3.11960 8.34312 9240 ft 179 kts 38°
2026-05-04 18:49 3.12882 8.35158 9240 ft 180 kts 38°
2026-05-04 18:49 3.13819 8.36016 9240 ft 180 kts 38°
2026-05-04 18:50 3.14743 8.36864 9240 ft 180 kts 38°
2026-05-04 18:50 3.15672 8.37717 9240 ft 180 kts 38°
2026-05-04 18:50 3.16596 8.38564 9240 ft 180 kts 38°
2026-05-04 18:50 3.17521 8.39413 9240 ft 180 kts 38°
2026-05-04 18:51 3.18444 8.40259 9240 ft 180 kts 38°
2026-05-04 18:51 3.19376 8.41115 9240 ft 180 kts 38°
2026-05-04 18:51 3.20296 8.41959 9240 ft 180 kts 38°
2026-05-04 18:51 3.21224 8.42811 9240 ft 180 kts 38°
2026-05-04 18:52 3.22156 8.43666 9240 ft 180 kts 38°
2026-05-04 18:52 3.23079 8.44514 9240 ft 180 kts 38°
2026-05-04 18:52 3.24016 8.45374 9240 ft 180 kts 38°
2026-05-04 18:52 3.24936 8.46219 9240 ft 180 kts 38°
2026-05-04 18:53 3.25866 8.47073 9240 ft 180 kts 38°
2026-05-04 18:53 3.26795 8.47927 9240 ft 180 kts 38°
2026-05-04 18:53 3.27721 8.48778 9239 ft 180 kts 38°
2026-05-04 18:53 3.28645 8.49628 9239 ft 180 kts 38°
2026-05-04 18:54 3.29565 8.50473 9239 ft 180 kts 38°
2026-05-04 18:54 3.30491 8.51325 9239 ft 180 kts 38°
2026-05-04 18:54 3.31423 8.52182 9239 ft 180 kts 38°
2026-05-04 18:54 3.32344 8.53029 9239 ft 180 kts 38°
2026-05-04 18:55 3.33274 8.53885 9239 ft 180 kts 38°
2026-05-04 18:55 3.35118 8.55582 9239 ft 180 kts 38°
2026-05-04 18:55 3.36059 8.56448 9239 ft 180 kts 38°
2026-05-04 18:56 3.36975 8.57291 9239 ft 180 kts 38°
2026-05-04 18:56 3.37910 8.58152 9239 ft 180 kts 38°
2026-05-04 18:56 3.38832 8.59001 9239 ft 180 kts 38°
2026-05-04 18:56 3.39757 8.59853 9239 ft 180 kts 38°
2026-05-04 18:57 3.40689 8.60711 9239 ft 180 kts 38°
2026-05-04 18:57 3.41615 8.61564 9239 ft 180 kts 38°
2026-05-04 18:57 3.42543 8.62419 9239 ft 180 kts 38°
2026-05-04 18:57 3.43468 8.63271 9239 ft 180 kts 38°
2026-05-04 18:58 3.44399 8.64129 9239 ft 180 kts 38°
2026-05-04 18:58 3.45323 8.64982 9239 ft 180 kts 38°
2026-05-04 18:58 3.46341 8.65920 9238 ft 180 kts 38°
2026-05-04 18:58 3.47293 8.66799 9238 ft 180 kts 38°
2026-05-04 18:59 3.48205 8.67640 9238 ft 180 kts 38°
2026-05-04 18:59 3.49130 8.68495 9238 ft 180 kts 38°
2026-05-04 18:59 3.50063 8.69356 9238 ft 180 kts 38°
2026-05-04 18:59 3.50984 8.70207 9238 ft 180 kts 38°
2026-05-04 19:00 3.51907 8.71060 9238 ft 180 kts 38°
2026-05-04 19:00 3.52827 8.71910 9238 ft 180 kts 38°
2026-05-04 19:00 3.53760 8.72775 9237 ft 180 kts 39°
2026-05-04 19:00 3.54489 8.73827 9236 ft 184 kts 53°
2026-05-04 19:01 3.55148 8.74933 9238 ft 184 kts 54°
2026-05-04 19:01 3.55807 8.76051 9238 ft 184 kts 54°
2026-05-04 19:01 3.56460 8.77162 9238 ft 184 kts 54°
2026-05-04 19:01 3.57111 8.78271 9238 ft 184 kts 54°
2026-05-04 19:02 3.57758 8.79372 9238 ft 184 kts 54°
2026-05-04 19:02 3.58415 8.80490 9238 ft 184 kts 54°
2026-05-04 19:02 3.59072 8.81609 9211 ft 186 kts 54°
2026-05-04 19:02 3.59835 8.82670 9063 ft 187 kts 35°
2026-05-04 19:03 3.60957 8.83414 8947 ft 187 kts 27°
2026-05-04 19:03 3.62229 8.83574 8810 ft 186 kts 355°
2026-05-04 19:03 3.63527 8.83349 8659 ft 189 kts 337°
2026-05-04 19:03 3.64642 8.82671 8550 ft 190 kts 328°
2026-05-04 19:04 3.65415 8.81584 8410 ft 195 kts 299°
2026-05-04 19:04 3.65986 8.80352 8286 ft 195 kts 298°
2026-05-04 19:04 3.66559 8.79084 8157 ft 195 kts 298°
2026-05-04 19:04 3.67129 8.77825 8028 ft 195 kts 298°
2026-05-04 19:05 3.67692 8.76586 7900 ft 194 kts 298°
2026-05-04 19:05 3.68259 8.75346 7772 ft 194 kts 298°
2026-05-04 19:05 3.68829 8.74106 7644 ft 193 kts 298°
2026-05-04 19:05 3.69395 8.72882 7516 ft 193 kts 298°
2026-05-04 19:06 3.69967 8.71652 7388 ft 189 kts 298°
2026-05-04 19:06 3.70462 8.70582 7229 ft 153 kts 298°
2026-05-04 19:06 3.70860 8.69691 6939 ft 134 kts 297°
2026-05-04 19:06 3.71245 8.68862 6544 ft 126 kts 304°
2026-05-04 19:07 3.71934 8.68426 6157 ft 122 kts 348°
2026-05-04 19:07 3.72770 8.68552 5768 ft 126 kts 23°
2026-05-04 19:07 3.73370 8.69221 5386 ft 132 kts 52°
2026-05-04 19:07 3.73845 8.70002 5008 ft 132 kts 53°
2026-05-04 19:08 3.74314 8.70786 4631 ft 132 kts 53°
2026-05-04 19:08 3.74796 8.71582 4247 ft 132 kts 53°
2026-05-04 19:08 3.75289 8.72381 3766 ft 139 kts 54°
2026-05-04 19:08 3.75808 8.73200 3273 ft 143 kts 54°
2026-05-04 19:09 3.76353 8.74044 2774 ft 146 kts 54°
2026-05-04 19:09 3.76914 8.74896 2272 ft 147 kts 54°
2026-05-04 19:09 3.77447 8.75698 2094 ft 127 kts 53°
2026-05-04 19:09 3.77929 8.76423 1964 ft 128 kts 53°
2026-05-04 19:10 3.78439 8.77184 1845 ft 133 kts 53°
2026-05-04 19:10 3.78985 8.77998 1716 ft 134 kts 53°
2026-05-04 19:10 3.79512 8.78778 1587 ft 133 kts 53°
2026-05-04 19:10 3.80030 8.79542 1462 ft 133 kts 53°
2026-05-04 19:11 3.80615 8.80250 1327 ft 130 kts 31°
2026-05-04 19:11 3.81478 8.80423 1202 ft 129 kts 346°
2026-05-04 19:11 3.82239 8.79964 1083 ft 129 kts 313°
2026-05-04 19:11 3.82798 8.79259 953 ft 130 kts 288°
2026-05-04 19:12 3.82717 8.78337 831 ft 141 kts 245°
2026-05-04 19:12 3.81639 8.76512 744 ft 159 kts 241°
2026-05-04 19:12 3.81023 8.75567 725 ft 163 kts 224°
2026-05-04 19:13 3.80083 8.74929 741 ft 164 kts 215°
2026-05-04 19:13 3.79231 8.74187 705 ft 155 kts 228°
2026-05-04 19:13 3.78593 8.73618 687 ft 91 kts 223°
2026-05-04 19:13 3.78146 8.73236 500 ft 84 kts 224°
2026-05-04 19:14 3.77753 8.72878 458 ft 71 kts 222°
2026-05-04 19:14 3.77388 8.72548 320 ft 74 kts 223°
2026-05-04 19:14 3.77007 8.72196 239 ft 68 kts 221°
2026-05-04 19:14 3.76650 8.71876 113 ft 80 kts 222°
2026-05-04 19:15 3.76216 8.71485 91 ft 87 kts 221°
2026-05-04 19:15 3.75793 8.71105 79 ft 67 kts 222°
2026-05-04 19:15 3.75501 8.70844 79 ft 55 kts 223°
2026-05-04 19:15 3.75248 8.70618 79 ft 54 kts 221°
2026-05-04 19:16 3.75001 8.70409 79 ft 21 kts 213°
2026-05-04 19:16 3.74950 8.70407 79 ft 5 kts 140°
2026-05-04 19:16 3.74922 8.70438 79 ft 5 kts 131°
2026-05-04 19:16 3.74918 8.70443 79 ft 0 kts 132°
2026-05-04 19:17 3.74917 8.70443 79 ft 0 kts 132°
2026-05-04 19:17 3.74910 8.70452 79 ft 3 kts 133°
2026-05-04 19:17 3.74870 8.70496 79 ft 21 kts 131°
2026-05-04 19:17 3.74812 8.70595 79 ft 13 kts 52°
2026-05-04 19:18 3.74862 8.70670 79 ft 13 kts 94°
2026-05-04 19:18 3.74855 8.70686 79 ft 1 kts 162°
2026-05-04 19:18 3.74847 8.70679 79 ft 0 kts 277°
2026-05-04 19:18 3.74848 8.70677 79 ft 1 kts 301°
2026-05-04 19:19 3.74850 8.70672 79 ft 0 kts 282°